Previsão horária em Abadan

Hoje, 21 Outubro, Quarta-feira

Tempo Temperatura Precipitação Vento Pressão Humidade
00:00 +25°C° 0 mm 4 m/s 758 mmHg 17%
01:00 +25°C° 0 mm 4 m/s 758 mmHg 18%
02:00 +23°C° 0 mm 4 m/s 757 mmHg 20%
03:00 +22°C° 0 mm 4 m/s 757 mmHg 22%
04:00 +22°C° 0 mm 4 m/s 758 mmHg 23%
05:00 +21°C° 0 mm 4 m/s 758 mmHg 24%
06:00 +21°C° 0 mm 3 m/s 759 mmHg 26%
07:00 +25°C° 0 mm 4 m/s 759 mmHg 22%
08:00 +27°C° 0 mm 4 m/s 759 mmHg 19%
09:00 +30°C° 0 mm 4 m/s 759 mmHg 15%
10:00 +33°C° 0 mm 4 m/s 759 mmHg 13%
11:00 +35°C° 0 mm 3 m/s 759 mmHg 11%
12:00 +37°C° 0 mm 3 m/s 759 mmHg 9%
13:00 +38°C° 0 mm 3 m/s 758 mmHg 8%
14:00 +38°C° 0 mm 3 m/s 758 mmHg 8%
15:00 +39°C° 0 mm 3 m/s 757 mmHg 7%
16:00 +36°C° 0 mm 2 m/s 757 mmHg 9%
17:00 +31°C° 0 mm 2 m/s 757 mmHg 11%
18:00 +28°C° 0 mm 2 m/s 758 mmHg 13%
19:00 +27°C° 0 mm 2 m/s 758 mmHg 15%
20:00 +26°C° 0 mm 2 m/s 758 mmHg 16%
21:00 +26°C° 0 mm 1 m/s 758 mmHg 17%
22:00 +26°C° 0 mm 2 m/s 758 mmHg 18%
23:00 +26°C° 0 mm 2 m/s 758 mmHg 19%

Amanhã, 22 Outubro, Quinta-feira

Tempo Temperatura Precipitação Vento Pressão Humidade
00:00 +26°C° 0 mm 3 m/s 758 mmHg 20%
01:00 +25°C° 0 mm 3 m/s 758 mmHg 23%
02:00 +23°C° 0 mm 2 m/s 758 mmHg 25%
03:00 +21°C° 0 mm 2 m/s 757 mmHg 27%
04:00 +21°C° 0 mm 2 m/s 758 mmHg 27%
05:00 +21°C° 0 mm 2 m/s 758 mmHg 27%
06:00 +20°C° 0 mm 2 m/s 758 mmHg 27%
07:00 +25°C° 0 mm 2 m/s 758 mmHg 21%
08:00 +29°C° 0 mm 2 m/s 759 mmHg 16%
09:00 +32°C° 0 mm 2 m/s 759 mmHg 10%
10:00 +35°C° 0 mm 2 m/s 758 mmHg 9%
11:00 +37°C° 0 mm 2 m/s 758 mmHg 7%
12:00 +38°C° 0 mm 2 m/s 758 mmHg 6%
13:00 +39°C° 0 mm 3 m/s 757 mmHg 5%
14:00 +39°C° 0 mm 3 m/s 756 mmHg 5%
15:00 +41°C° 0 mm 4 m/s 756 mmHg 4%
16:00 +37°C° 0 mm 4 m/s 756 mmHg 5%
17:00 +34°C° 0 mm 3 m/s 756 mmHg 6%
18:00 +30°C° 0 mm 3 m/s 756 mmHg 6%
19:00 +29°C° 0 mm 3 m/s 756 mmHg 7%
20:00 +27°C° 0 mm 3 m/s 756 mmHg 7%
21:00 +26°C° 0 mm 2 m/s 756 mmHg 7%
22:00 +27°C° 0 mm 3 m/s 756 mmHg 9%
23:00 +27°C° 0 mm 3 m/s 756 mmHg 11%

Depois de amanhã, 23 Outubro, Sexta-feira

Tempo Temperatura Precipitação Vento Pressão Humidade
00:00 +27°C° 0 mm 4 m/s 756 mmHg 13%
01:00 +26°C° 0 mm 4 m/s 756 mmHg 16%
02:00 +25°C° 0 mm 4 m/s 756 mmHg 18%
03:00 +23°C° 0 mm 4 m/s 756 mmHg 21%
04:00 +23°C° 0 mm 4 m/s 756 mmHg 22%
05:00 +22°C° 0 mm 4 m/s 756 mmHg 22%
06:00 +22°C° 0 mm 4 m/s 757 mmHg 22%
07:00 +25°C° 0 mm 4 m/s 757 mmHg 19%
08:00 +28°C° 0 mm 5 m/s 757 mmHg 16%
09:00 +32°C° 0 mm 5 m/s 757 mmHg 13%
10:00 +34°C° 0 mm 5 m/s 757 mmHg 11%
11:00 +36°C° 0 mm 4 m/s 757 mmHg 9%
12:00 +38°C° 0 mm 4 m/s 756 mmHg 7%
13:00 +40°C° 0 mm 4 m/s 756 mmHg 7%
14:00 +40°C° 0 mm 3 m/s 755 mmHg 6%
15:00 +40°C° 0 mm 3 m/s 755 mmHg 6%
16:00 +37°C° 0 mm 3 m/s 755 mmHg 7%
17:00 +32°C° 0 mm 2 m/s 755 mmHg 8%
18:00 +29°C° 0 mm 2 m/s 755 mmHg 9%
19:00 +28°C° 0 mm 2 m/s 756 mmHg 10%
20:00 +27°C° 0 mm 2 m/s 756 mmHg 11%
21:00 +26°C° 0 mm 1 m/s 756 mmHg 12%
22:00 +25°C° 0 mm 1 m/s 756 mmHg 12%
23:00 +25°C° 0 mm 2 m/s 756 mmHg 13%

24 Outubro, Sábado

Tempo Temperatura Precipitação Vento Pressão Humidade
00:00 +24°C° 0 mm 2 m/s 756 mmHg 14%
01:00 +24°C° 0 mm 2 m/s 756 mmHg 16%
02:00 +23°C° 0 mm 2 m/s 756 mmHg 18%
03:00 +23°C° 0 mm 2 m/s 756 mmHg 21%
04:00 +21°C° 0 mm 2 m/s 756 mmHg 23%
05:00 +21°C° 0 mm 2 m/s 757 mmHg 25%
06:00 +21°C° 0 mm 2 m/s 757 mmHg 28%
07:00 +25°C° 0 mm 2 m/s 757 mmHg 23%
08:00 +28°C° 0 mm 2 m/s 758 mmHg 18%
09:00 +31°C° 0 mm 2 m/s 759 mmHg 13%
10:00 +34°C° 0 mm 2 m/s 758 mmHg 12%
11:00 +35°C° 0 mm 2 m/s 758 mmHg 11%
12:00 +37°C° 0 mm 2 m/s 758 mmHg 9%
13:00 +38°C° 0 mm 2 m/s 758 mmHg 10%
14:00 +38°C° 0 mm 3 m/s 757 mmHg 11%
15:00 +38°C° 0 mm 4 m/s 757 mmHg 12%
16:00 +35°C° 0 mm 4 m/s 757 mmHg 25%
17:00 +32°C° 0 mm 4 m/s 757 mmHg 38%
18:00 +27°C° 0 mm 4 m/s 757 mmHg 51%
19:00 +27°C° 0 mm 4 m/s 758 mmHg 56%
20:00 +26°C° 0 mm 4 m/s 758 mmHg 60%
21:00 +25°C° 0 mm 3 m/s 758 mmHg 65%
22:00 +24°C° 0 mm 3 m/s 759 mmHg 67%
23:00 +24°C° 0 mm 3 m/s 759 mmHg 69%

25 Outubro, Domingo

Tempo Temperatura Precipitação Vento Pressão Humidade
00:00 +23°C° 0 mm 2 m/s 759 mmHg 72%
01:00 +23°C° 0 mm 2 m/s 759 mmHg 72%
02:00 +23°C° 0 mm 2 m/s 758 mmHg 73%
03:00 +23°C° 0 mm 2 m/s 758 mmHg 74%
04:00 +21°C° 0 mm 2 m/s 759 mmHg 73%
05:00 +21°C° 0 mm 2 m/s 759 mmHg 72%
06:00 +21°C° 0 mm 2 m/s 759 mmHg 72%
07:00 +25°C° 0 mm 2 m/s 759 mmHg 59%
08:00 +28°C° 0 mm 3 m/s 760 mmHg 45%
09:00 +30°C° 0 mm 3 m/s 760 mmHg 32%
10:00 +33°C° 0 mm 3 m/s 760 mmHg 25%
11:00 +35°C° 0 mm 3 m/s 759 mmHg 18%
12:00 +37°C° 0 mm 4 m/s 759 mmHg 12%
13:00 +37°C° 0 mm 4 m/s 758 mmHg 11%
14:00 +37°C° 0 mm 4 m/s 758 mmHg 11%
15:00 +37°C° 0 mm 4 m/s 758 mmHg 10%
16:00 +34°C° 0 mm 4 m/s 758 mmHg 18%
17:00 +30°C° 0 mm 4 m/s 758 mmHg 25%
18:00 +27°C° 0 mm 4 m/s 758 mmHg 33%
19:00 +27°C° 0 mm 4 m/s 758 mmHg 37%
20:00 +26°C° 0 mm 4 m/s 758 mmHg 41%
21:00 +25°C° 0 mm 4 m/s 759 mmHg 45%
22:00 +25°C° 0 mm 3 m/s 758 mmHg 50%
23:00 +24°C° 0 mm 3 m/s 758 mmHg 55%

26 Outubro, Segunda-feira

Tempo Temperatura Precipitação Vento Pressão Humidade
00:00 +22°C° 0 mm 3 m/s 758 mmHg 59%
01:00 +23°C° 0 mm 2 m/s 758 mmHg 63%
02:00 +21°C° 0 mm 2 m/s 758 mmHg 66%
03:00 +21°C° 0 mm 2 m/s 759 mmHg 69%
04:00 +20°C° 0 mm 2 m/s 759 mmHg 66%
05:00 +21°C° 0 mm 1 m/s 759 mmHg 62%
06:00 +20°C° 0 mm 1 m/s 759 mmHg 59%
07:00 +23°C° 0 mm 1 m/s 760 mmHg 46%
08:00 +27°C° 0 mm 1 m/s 760 mmHg 33%
09:00 +30°C° 0 mm 1 m/s 760 mmHg 20%
10:00 +32°C° 0 mm 1 m/s 760 mmHg 18%
11:00 +34°C° 0 mm 1 m/s 760 mmHg 16%
12:00 +35°C° 0 mm 1 m/s 759 mmHg 13%
13:00 +37°C° 0 mm 2 m/s 759 mmHg 13%
14:00 +37°C° 0 mm 2 m/s 758 mmHg 12%
15:00 +37°C° 0 mm 2 m/s 758 mmHg 11%
16:00 +34°C° 0 mm 2 m/s 758 mmHg 18%
17:00 +30°C° 0 mm 2 m/s 758 mmHg 25%
18:00 +27°C° 0 mm 2 m/s 758 mmHg 32%
19:00 +26°C° 0 mm 2 m/s 758 mmHg 36%
20:00 +25°C° 0 mm 2 m/s 758 mmHg 40%
21:00 +24°C° 0 mm 2 m/s 758 mmHg 45%
22:00 +24°C° 0 mm 2 m/s 758 mmHg 46%
23:00 +24°C° 0 mm 2 m/s 758 mmHg 48%

27 Outubro, Terça-feira

Tempo Temperatura Precipitação Vento Pressão Humidade
00:00 +24°C° 0 mm 3 m/s 758 mmHg 50%
01:00 +23°C° 0 mm 2 m/s 758 mmHg 53%
02:00 +23°C° 0 mm 2 m/s 758 mmHg 57%
03:00 +21°C° 0 mm 2 m/s 758 mmHg 60%
04:00 +21°C° 0 mm 1 m/s 758 mmHg 62%
05:00 +20°C° 0 mm 1 m/s 759 mmHg 63%
06:00 +19°C° 0 mm 1 m/s 759 mmHg 65%
07:00 +23°C° 0 mm 1 m/s 759 mmHg 51%
08:00 +27°C° 0 mm 1 m/s 759 mmHg 38%
09:00 +31°C° 0 mm 2 m/s 760 mmHg 25%
10:00 +32°C° 0 mm 2 m/s 760 mmHg 20%
11:00 +35°C° 0 mm 2 m/s 759 mmHg 16%
12:00 +36°C° 0 mm 1 m/s 759 mmHg 12%
13:00 +36°C° 0 mm 1 m/s 759 mmHg 11%
14:00 +37°C° 0 mm 1 m/s 758 mmHg 10%
15:00 +37°C° 0 mm 1 m/s 758 mmHg 10%
16:00 +35°C° 0 mm 2 m/s 758 mmHg 15%
17:00 +31°C° 0 mm 2 m/s 758 mmHg 21%
18:00 +28°C° 0 mm 2 m/s 758 mmHg 26%
19:00 +27°C° 0 mm 2 m/s 758 mmHg 29%
20:00 +26°C° 0 mm 3 m/s 758 mmHg 32%
21:00 +25°C° 0 mm 3 m/s 758 mmHg 35%
22:00 +25°C° 0 mm 3 m/s 759 mmHg 37%
23:00 +25°C° 0 mm 3 m/s 759 mmHg 38%
Mostrar mais